Stations météo

réclame
Mon MeteoGroup
Cozzo Spadaro, Italie (16480): Température de l'air & dewpoint: 14.08.2018 01:00:00 - 20.08.2018 01:00:00 (CEST)Cozzo Spadaro, Italie (16480): Vitesse du vent: 14.08.2018 01:00:00 - 20.08.2018 01:00:00 (CEST)Cozzo Spadaro, Italie (16480): Direction du vent: 14.08.2018 01:00:00 - 20.08.2018 01:00:00 (CEST)Cozzo Spadaro, Italie (16480): reduced air pressure: 14.08.2018 01:00:00 - 20.08.2018 01:00:00 (CEST)Cozzo Spadaro, Italie (16480): visibility: 14.08.2018 01:00:00 - 20.08.2018 01:00:00 (CEST)Cozzo Spadaro, Italie (16480): Ensoleillement: 14.08.2018 01:00:00 - 20.08.2018 01:00:00 (CEST)
Date & Time tt [°C] td [°C] ff [km/h] ff [knt] dd ppp [hPa] vv [km] sd [min]
20.08.2018 01:00:00 - - - - - - - -
20.08.2018 00:00:00 - - - - - - - -
19.08.2018 23:00:00 - - - - - - - -
19.08.2018 22:00:00 - - - - - - - -
19.08.2018 21:00:00 - - - - - - - -
19.08.2018 20:00:00 27,4 24,1 15 8 W 1010,9 20 12
19.08.2018 19:00:00 28,4 24,0 13 7 WSW 1010,9 20 60
19.08.2018 18:00:00 28,6 23,1 11 6 SW 1011,0 20 60
19.08.2018 17:00:00 29,0 23,9 11 6 SW 1011,8 20 60
19.08.2018 16:00:00 28,8 24,4 9 5 WSW 1012,2 20 60
19.08.2018 15:00:00 28,8 23,2 11 6 SW 1012,6 20 60
19.08.2018 14:00:00 28,8 24,4 13 7 WSW 1012,6 20 60
19.08.2018 13:00:00 29,6 22,3 11 6 SW 1012,9 20 60
19.08.2018 12:00:00 29,2 22,0 11 6 SW 1013,1 20 60
19.08.2018 11:00:00 28,8 21,1 8 4 SW 1013,2 20 60
19.08.2018 10:00:00 28,2 20,7 4 2 SSW 1013,0 20 60
19.08.2018 09:00:00 27,4 21,0 0 0 N 1012,9 20 60
19.08.2018 08:00:00 25,4 20,9 0 0 N 1012,9 20 60
19.08.2018 07:00:00 - - - - - - - -
19.08.2018 06:00:00 - - - - - - - -
19.08.2018 05:00:00 - - - - - - - -
19.08.2018 04:00:00 - - - - - - - -
19.08.2018 03:00:00 - - - - - - - -
19.08.2018 02:00:00 - - - - - - - -
19.08.2018 01:00:00 - - - - - - - -
19.08.2018 00:00:00 - - - - - - - -
18.08.2018 23:00:00 - - - - - - - -
18.08.2018 22:00:00 - - - - - - - -
18.08.2018 21:00:00 - - - - - - - -
18.08.2018 20:00:00 27,0 23,7 5 3 W 1012,7 20 30
18.08.2018 19:00:00 27,6 23,2 5 3 SW 1012,5 25 60
18.08.2018 18:00:00 28,0 23,6 5 3 WSW 1012,5 25 60
18.08.2018 17:00:00 28,0 23,8 4 2 S 1012,9 25 60
18.08.2018 16:00:00 28,0 24,0 4 2 SSE 1012,8 20 54
18.08.2018 15:00:00 27,2 23,9 4 2 ENE 1012,9 18 30
18.08.2018 14:00:00 29,6 23,8 9 5 E 1013,0 10 60
18.08.2018 13:00:00 29,4 23,6 11 6 ESE 1013,1 20 60
18.08.2018 12:00:00 29,4 23,4 11 6 E 1013,3 25 60
18.08.2018 11:00:00 28,8 23,5 11 6 ENE 1012,9 25 54
18.08.2018 10:00:00 28,2 23,6 11 6 ENE 1012,6 18 54
18.08.2018 09:00:00 27,2 23,5 13 7 ENE 1012,2 18 48
18.08.2018 08:00:00 25,4 22,7 5 3 NNE 1012,2 12 30
18.08.2018 07:00:00 - - - - - - - -
18.08.2018 06:00:00 - - - - - - - -
18.08.2018 05:00:00 - - - - - - - -
18.08.2018 04:00:00 - - - - - - - -
18.08.2018 03:00:00 - - - - - - - -
18.08.2018 02:00:00 - - - - - - - -
18.08.2018 01:00:00 - - - - - - - -
18.08.2018 00:00:00 - - - - - - - -
17.08.2018 23:00:00 - - - - - - - -
17.08.2018 22:00:00 - - - - - - - -
17.08.2018 21:00:00 - - - - - - - -
17.08.2018 20:00:00 27,2 22,8 8 4 WSW 1010,8 25 12
17.08.2018 19:00:00 27,4 21,7 11 6 WSW 1010,8 25 60
17.08.2018 18:00:00 27,8 23,0 11 6 SW 1010,9 20 60
17.08.2018 17:00:00 28,8 23,9 13 7 W 1011,2 20 60
17.08.2018 16:00:00 28,8 24,4 9 5 SE 1011,2 20 60
17.08.2018 15:00:00 28,4 23,5 9 5 SW 1011,7 20 60
17.08.2018 14:00:00 29,0 23,7 11 6 SW 1011,8 25 60
17.08.2018 13:00:00 29,0 23,9 11 6 SSE 1011,8 25 60
17.08.2018 12:00:00 29,0 24,1 9 5 SSE 1011,8 25 60
17.08.2018 11:00:00 28,6 23,7 9 5 SE 1011,8 20 60
17.08.2018 10:00:00 28,4 22,9 8 4 SE 1011,6 20 60
17.08.2018 09:00:00 27,0 22,8 4 2 E 1011,7 20 60
17.08.2018 08:00:00 26,2 23,3 0 0 N 1011,6 15 60
17.08.2018 07:00:00 - - - - - - - -
17.08.2018 06:00:00 - - - - - - - -
17.08.2018 05:00:00 - - - - - - - -
17.08.2018 04:00:00 - - - - - - - -
17.08.2018 03:00:00 - - - - - - - -
17.08.2018 02:00:00 - - - - - - - -
17.08.2018 01:00:00 - - - - - - - -
17.08.2018 00:00:00 - - - - - - - -
16.08.2018 23:00:00 - - - - - - - -
16.08.2018 22:00:00 - - - - - - - -
16.08.2018 21:00:00 - - - - - - - -
16.08.2018 20:00:00 26,8 23,1 5 3 W 1009,9 25 12
16.08.2018 19:00:00 27,2 21,9 11 6 W 1009,7 25 60
16.08.2018 18:00:00 27,8 22,7 13 7 W 1009,8 25 60
16.08.2018 17:00:00 28,4 22,2 13 7 W 1009,7 20 60
16.08.2018 16:00:00 29,0 22,0 13 7 W 1009,9 25 60
16.08.2018 15:00:00 29,0 21,2 11 6 WSW 1010,2 25 60
16.08.2018 14:00:00 29,2 21,7 11 6 SSW 1010,3 25 60
16.08.2018 13:00:00 28,8 20,5 11 6 SW 1010,3 25 60
16.08.2018 12:00:00 28,6 20,6 5 3 SSE 1010,5 25 60
16.08.2018 11:00:00 28,0 20,8 9 5 SW 1010,6 25 60
16.08.2018 10:00:00 27,8 20,4 5 3 E 1009,8 25 60
16.08.2018 09:00:00 27,0 19,9 2 1 NE 1009,8 25 60
16.08.2018 08:00:00 25,0 19,4 2 1 NNW 1009,8 25 60
16.08.2018 07:00:00 - - - - - - - -
16.08.2018 06:00:00 - - - - - - - -
16.08.2018 05:00:00 - - - - - - - -
16.08.2018 04:00:00 - - - - - - - -
16.08.2018 03:00:00 - - - - - - - -
16.08.2018 02:00:00 - - - - - - - -
16.08.2018 01:00:00 - - - - - - - -
16.08.2018 00:00:00 - - - - - - - -
15.08.2018 23:00:00 - - - - - - - -
15.08.2018 22:00:00 - - - - - - - -
15.08.2018 21:00:00 - - - - - - - -
15.08.2018 20:00:00 26,4 21,4 4 2 NW 1009,8 20 18
15.08.2018 19:00:00 27,0 21,7 11 6 E 1009,8 25 60
15.08.2018 18:00:00 28,8 23,7 18 10 W 1008,8 20 60
15.08.2018 17:00:00 29,0 23,9 24 13 W 1008,8 20 60
15.08.2018 16:00:00 29,6 23,5 26 14 W 1008,8 20 60
15.08.2018 15:00:00 30,0 23,2 22 12 W 1008,9 20 60
15.08.2018 14:00:00 29,6 23,6 22 12 W 1009,8 20 60
15.08.2018 13:00:00 29,8 23,7 21 11 W 1009,8 20 60
15.08.2018 12:00:00 30,0 23,2 16 9 W 1009,8 20 60
15.08.2018 11:00:00 30,0 22,7 13 7 W 1009,8 20 60
15.08.2018 10:00:00 29,0 21,8 9 5 W 1009,7 20 60
15.08.2018 09:00:00 27,8 22,5 5 3 W 1009,3 20 60
15.08.2018 08:00:00 26,4 23,5 4 2 W 1009,5 18 48
15.08.2018 07:00:00 - - - - - - - -
15.08.2018 06:00:00 - - - - - - - -
15.08.2018 05:00:00 - - - - - - - -
15.08.2018 04:00:00 - - - - - - - -
15.08.2018 03:00:00 - - - - - - - -
15.08.2018 02:00:00 - - - - - - - -
15.08.2018 01:00:00 - - - - - - - -
15.08.2018 00:00:00 - - - - - - - -
14.08.2018 23:00:00 - - - - - - - -
14.08.2018 22:00:00 - - - - - - - -
14.08.2018 21:00:00 - - - - - - - -
14.08.2018 20:00:00 29,8 24,4 5 3 NNW 1009,8 18 0
14.08.2018 19:00:00 29,4 24,7 15 8 W 1009,8 18 60
14.08.2018 18:00:00 30,0 24,2 16 9 W 1009,8 18 60
14.08.2018 17:00:00 30,2 24,1 15 8 W 1009,8 18 60
14.08.2018 16:00:00 30,0 24,6 16 9 W 1009,8 18 60
14.08.2018 15:00:00 30,4 24,3 15 8 WSW 1010,4 18 60
14.08.2018 14:00:00 30,8 24,7 16 9 W 1010,8 18 60
14.08.2018 13:00:00 30,8 23,7 13 7 SW 1011,2 18 60
14.08.2018 12:00:00 30,6 23,8 13 7 SW 1011,4 18 60
14.08.2018 11:00:00 30,2 21,9 2 1 SSE 1011,3 15 60
14.08.2018 10:00:00 28,8 21,6 2 1 E 1011,1 15 54
14.08.2018 09:00:00 27,6 21,6 0 0 N 1010,9 15 6
14.08.2018 08:00:00 26,6 21,8 0 0 N 1010,9 12 0
14.08.2018 07:00:00 - - - - - - - -
14.08.2018 06:00:00 - - - - - - - -
14.08.2018 05:00:00 - - - - - - - -
14.08.2018 04:00:00 - - - - - - - -
14.08.2018 03:00:00 - - - - - - - -
14.08.2018 02:00:00 - - - - - - - -
14.08.2018 01:00:00 - - - - - - - -

tt = Température de l'air
td = dewpoint
ff = Vitesse du vent
dd = Direction du vent
ppp = reduced air pressure
vv = visibility
sd = Ensoleillement

stations d'obs. à proximité